Weather History for Jackson Hawkins Field, MS

Change the Weather History Date:

Wednesday, November 21, 2012

  Actual Average (KJAN) Record (KJAN)
Temperature  
Mean Temperature 60 °F 54 °F  
Max Temperature 73 °F 66 °F 82 °F (1913)
Min Temperature 46 °F 42 °F 21 °F (1937)
Degree Days  
Heating Degree Days 6 12  
Month to date heating degree days 185  
Since 1 July heating degree days 292  
Cooling Degree Days 0 0  
Month to date cooling degree days 21  
Year to date cooling degree days 2252  
Growing Degree Days 10 (Base 50)    
Moisture  
Dew Point 47 °F    
Average Humidity 70    
Maximum Humidity 93    
Minimum Humidity 38    
Precipitation  
Precipitation 0.00 in 0.17 in 2.57 in (1977)
Month to date precipitation 3.16  
Year to date precipitation 47.39  
Sea Level Pressure  
Sea Level Pressure 30.18 in    
Wind  
Wind Speed 2 mph (NW)    
Max Wind Speed 8 mph    
Max Gust Speed -    
Visibility 8 miles    
Events      
T = Trace of Precipitation, MM = Missing Value Source: NWS Daily Summary

Daily Weather History Graph

Daily Weather History Graph

Search for Another Location

Airport:

Trip Planner

Search our weather history database for the weather conditions in past years. The results will help you decide how hot, cold, wet, or windy it might be!

Date:

Astronomy

Nov. 21, 2012 Rise Set
Actual Time 6:36 AM CST 4:57 PM CST
Civil Twilight 6:09 AM CST 5:23 PM CST
Nautical Twilight 5:39 AM CST 5:53 PM CST
Astronomical Twilight 5:10 AM CST 6:23 PM CST
Moon 12:55 PM CST (11/21) 12:16 AM CST (11/21)
Length of Visible Light 11h 14m
Length of Day
10h 21m
First Quarter, 62% of the Moon is Illuminated
Nov 21
First Quarter
Nov 28
Full
Dec 6
Last Quarter
Dec 13
New
Dec 19
First Quarter

Hourly Weather History & Observations

Time (CST) Temp. Dew Point Humidity Pressure Visibility Wind Dir Wind Speed Gust Speed Precip Events Conditions
12:53 AM 48.0 °F 45.0 °F 89% 30.14 in 7.0 mi Calm Calm - N/A   Partly Cloudy
1:53 AM 46.9 °F 45.0 °F 93% 30.14 in 6.0 mi Calm Calm - N/A   Scattered Clouds
2:53 AM 46.9 °F 45.0 °F 93% 30.14 in 7.0 mi Calm Calm - N/A   Scattered Clouds
3:53 AM 48.0 °F 45.0 °F 89% 30.14 in 7.0 mi Calm Calm - N/A   Scattered Clouds
4:53 AM 48.0 °F 45.0 °F 89% 30.15 in 8.0 mi Calm Calm - N/A   Clear
5:53 AM 46.0 °F 44.1 °F 93% 30.17 in 7.0 mi Calm Calm - N/A   Clear
6:53 AM 46.0 °F 44.1 °F 93% 30.19 in 6.0 mi Calm Calm - N/A   Clear
7:53 AM 53.1 °F 46.0 °F 77% 30.20 in 10.0 mi NNW 3.5 mph - N/A   Clear
8:53 AM 57.0 °F 48.9 °F 74% 30.21 in 10.0 mi WNW 3.5 mph - N/A   Clear
9:53 AM 63.0 °F 48.9 °F 60% 30.22 in 10.0 mi NW 3.5 mph - N/A   Clear
10:24 AM 66.2 °F 50.0 °F 56% 30.24 in 2.0 mi NW 4.6 mph - N/A   Haze
10:34 AM 66.2 °F 48.2 °F 52% 30.24 in 10.0 mi North 5.8 mph - N/A   Clear
10:53 AM 68.0 °F 48.9 °F 50% 30.22 in 10.0 mi Calm Calm - N/A   Clear
11:53 AM 71.1 °F 48.9 °F 45% 30.19 in 10.0 mi WNW 4.6 mph - N/A   Clear
12:53 PM 72.0 °F 48.0 °F 43% 30.18 in 10.0 mi WNW 8.1 mph - N/A   Clear
1:53 PM 73.0 °F 46.9 °F 39% 30.16 in 10.0 mi NW 5.8 mph - N/A   Clear
2:53 PM 73.0 °F 46.0 °F 38% 30.15 in 10.0 mi NNW 5.8 mph - N/A   Clear
3:53 PM 71.1 °F 46.9 °F 42% 30.16 in 10.0 mi Calm Calm - N/A   Clear
4:53 PM 68.0 °F 46.9 °F 47% 30.16 in 10.0 mi NNW 3.5 mph - N/A   Clear
5:53 PM 61.0 °F 48.0 °F 62% 30.17 in 10.0 mi NNW 3.5 mph - N/A   Clear
6:53 PM 59.0 °F 48.0 °F 67% 30.18 in 10.0 mi NNW 3.5 mph - N/A   Clear
7:53 PM 55.0 °F 48.0 °F 77% 30.19 in 10.0 mi Calm Calm - N/A   Clear
8:53 PM 51.1 °F 46.9 °F 86% 30.20 in 9.0 mi Calm Calm - N/A   Clear
9:53 PM 51.1 °F 48.0 °F 89% 30.20 in 7.0 mi Calm Calm - N/A   Clear
10:53 PM 50.0 °F 46.9 °F 89% 30.20 in 6.0 mi Calm Calm - N/A   Clear
11:53 PM 48.0 °F 46.0 °F 93% 30.19 in 5.0 mi Calm Calm - N/A   Clear